^^
Saratoga-Weather Station Historical Data
 
Daily Summary for May 22, 2019 Units:  English    Metric   Both
Daily Weekly Monthly Yearly Custom
  Current: High: Low: Average:
Temperature: 88.7 °F 89.1 °F 62.5 °F 74.6 °F
Dew Point: 61.9 °F 70.4 °F 59.2 °F 63.9 °F
Humidity: 41% 94% 39% 72%
Wind Speed: 7mph 8mph 0mph 2.2mph
Wind Gust: 10mph 14mph - -
WindSE - - SSE
Pressure: 30.03 in 30.04 in 29.90 in -
Precipitation: 0 in      
Historical Graphs
 
 
Tabular Data for May 22, 2019
Time Temperature Dew Point Pressure Wind Wind Speed Wind Gust Humidity Rainfall Rate (Hourly) solar
00:00 71.1 °F 63.9 °F 29.90 in Calm     78% 0 in 0.00 W/m2
00:05 70.9 °F 63.7 °F 29.90 in Calm   1 mph 78% 0 in 0.00 W/m2
00:10 70.8 °F 63.6 °F 29.90 in Calm   1 mph 78% 0 in 0.00 W/m2
00:15 70.7 °F 63.5 °F 29.90 in Calm   2 mph 78% 0 in 0.00 W/m2
00:20 70.6 °F 63.8 °F 29.90 in Calm     79% 0 in 0.00 W/m2
00:25 70.4 °F 63.6 °F 29.90 in Calm     79% 0 in 0.00 W/m2
00:30 70.3 °F 63.5 °F 29.90 in Calm     79% 0 in 0.00 W/m2
00:35 70.1 °F 63.3 °F 29.90 in Calm     79% 0 in 0.00 W/m2
00:40 69.9 °F 63.1 °F 29.90 in Calm     79% 0 in 0.00 W/m2
00:45 69.7 °F 62.9 °F 29.90 in Calm   1 mph 79% 0 in 0.00 W/m2
00:50 69.4 °F 62.6 °F 29.90 in Calm     79% 0 in 0.00 W/m2
00:55 69.2 °F 62.8 °F 29.90 in Calm     80% 0 in 0.00 W/m2
01:00 69 °F 62.6 °F 29.90 in Calm   1 mph 80% 0 in 0.00 W/m2
01:05 68.8 °F 62.7 °F 29.91 in Calm   1 mph 81% 0 in 0.00 W/m2
01:10 68.6 °F 62.5 °F 29.91 in Calm   2 mph 81% 0 in 0.00 W/m2
01:15 68.5 °F 62.8 °F 29.91 in South 1 mph 2 mph 82% 0 in 0.00 W/m2
01:20 68.4 °F 63 °F 29.91 in South 1 mph 3 mph 83% 0 in 0.00 W/m2
01:25 68.4 °F 63 °F 29.91 in SSE 2 mph 4 mph 83% 0 in 0.00 W/m2
01:30 68.4 °F 63 °F 29.91 in SSE 1 mph 3 mph 83% 0 in 0.00 W/m2
01:35 68.4 °F 63 °F 29.91 in South 1 mph 4 mph 83% 0 in 0.00 W/m2
01:40 68.5 °F 63.1 °F 29.91 in SSE 1 mph 3 mph 83% 0 in 0.00 W/m2
01:45 68.5 °F 63.1 °F 29.91 in Calm   1 mph 83% 0 in 0.00 W/m2
01:50 68.5 °F 63.1 °F 29.91 in Calm   1 mph 83% 0 in 0.00 W/m2
01:55 68.5 °F 62.8 °F 29.91 in Calm   1 mph 82% 0 in 0.00 W/m2
02:00 68.5 °F 62.8 °F 29.92 in Calm     82% 0 in 0.00 W/m2
02:05 68.4 °F 62.7 °F 29.93 in Calm     82% 0 in 0.00 W/m2
02:10 68.3 °F 62.6 °F 29.93 in Calm     82% 0 in 0.00 W/m2
02:15 68.3 °F 62.6 °F 29.93 in Calm     82% 0 in 0.00 W/m2
02:20 68.1 °F 62.4 °F 29.93 in Calm     82% 0 in 0.00 W/m2
02:25 68 °F 62.3 °F 29.93 in Calm     82% 0 in 0.00 W/m2
02:30 67.9 °F 61.8 °F 29.93 in Calm     81% 0 in 0.00 W/m2
02:35 67.8 °F 62.4 °F 29.93 in Calm     83% 0 in 0.00 W/m2
02:40 67.7 °F 62.3 °F 29.94 in Calm     83% 0 in 0.00 W/m2
02:45 67.5 °F 62.1 °F 29.94 in Calm     83% 0 in 0.00 W/m2
02:50 67.3 °F 62 °F 29.94 in Calm     83% 0 in 0.00 W/m2
02:55 67.1 °F 61.4 °F 29.94 in Calm     82% 0 in 0.00 W/m2
03:00 66.9 °F 61.6 °F 29.94 in Calm     83% 0 in 0.00 W/m2
03:05 66.7 °F 61.4 °F 29.95 in Calm     83% 0 in 0.00 W/m2
03:10 66.5 °F 61.2 °F 29.95 in Calm     83% 0 in 0.00 W/m2
03:15 66.3 °F 61 °F 29.95 in Calm     83% 0 in 0.00 W/m2
03:20 66.1 °F 60.8 °F 29.95 in Calm     83% 0 in 0.00 W/m2
03:25 66 °F 61 °F 29.95 in Calm     84% 0 in 0.00 W/m2
03:30 65.8 °F 60.8 °F 29.95 in Calm     84% 0 in 0.00 W/m2
03:35 65.7 °F 61.1 °F 29.95 in Calm     85% 0 in 0.00 W/m2
03:40 65.5 °F 60.9 °F 29.96 in Calm     85% 0 in 0.00 W/m2
03:45 65.3 °F 60.7 °F 29.96 in Calm     85% 0 in 0.00 W/m2
03:50 65.1 °F 60.5 °F 29.96 in Calm     85% 0 in 0.00 W/m2
03:55 65 °F 60.4 °F 29.96 in Calm     85% 0 in 0.00 W/m2
04:00 64.8 °F 60.2 °F 29.96 in Calm     85% 0 in 0.00 W/m2
04:05 64.6 °F 60 °F 29.96 in Calm     85% 0 in 0.00 W/m2
04:10 64.5 °F 59.9 °F 29.96 in Calm     85% 0 in 0.00 W/m2
04:15 64.3 °F 60 °F 29.96 in Calm     86% 0 in 0.00 W/m2
04:20 64.2 °F 59.9 °F 29.96 in Calm     86% 0 in 0.00 W/m2
04:25 64 °F 59.7 °F 29.96 in Calm     86% 0 in 0.00 W/m2
04:30 63.9 °F 59.6 °F 29.97 in Calm     86% 0 in 0.00 W/m2
04:35 63.8 °F 59.5 °F 29.96 in Calm     86% 0 in 0.00 W/m2
04:40 63.7 °F 59.8 °F 29.96 in Calm     87% 0 in 0.00 W/m2
04:45 63.6 °F 59.7 °F 29.96 in Calm     87% 0 in 0.00 W/m2
04:50 63.4 °F 59.5 °F 29.96 in Calm     87% 0 in 0.00 W/m2
04:55 63.4 °F 59.8 °F 29.95 in Calm     88% 0 in 0.00 W/m2
05:00 63.2 °F 59.6 °F 29.95 in Calm     88% 0 in 0.00 W/m2
05:05 63.1 °F 59.5 °F 29.96 in Calm     88% 0 in 0.00 W/m2
05:10 63 °F 59.4 °F 29.96 in Calm     88% 0 in 0.00 W/m2
05:15 63 °F 59.4 °F 29.96 in Calm     88% 0 in 0.00 W/m2
05:20 62.9 °F 59.6 °F 29.96 in Calm     89% 0 in 0.00 W/m2
05:25 62.9 °F 59.6 °F 29.97 in Calm     89% 0 in 0.00 W/m2
05:30 62.8 °F 59.5 °F 29.97 in Calm     89% 0 in 0.00 W/m2
05:35 62.8 °F 59.5 °F 29.97 in Calm     89% 0 in 0.00 W/m2
05:40 62.7 °F 59.4 °F 29.98 in Calm     89% 0 in 0.00 W/m2
05:45 62.7 °F 59.4 °F 29.98 in Calm     89% 0 in 1.00 W/m2
05:50 62.6 °F 59.3 °F 29.98 in Calm     89% 0 in 7.00 W/m2
05:55 62.6 °F 59.3 °F 29.98 in Calm     89% 0 in 12.00 W/m2
06:00 62.6 °F 59.6 °F 29.98 in Calm     90% 0 in 17.00 W/m2
06:05 62.5 °F 59.2 °F 29.98 in Calm     89% 0 in 22.00 W/m2
06:10 62.5 °F 59.2 °F 29.99 in Calm     89% 0 in 25.00 W/m2
06:15 62.5 °F 59.2 °F 29.99 in Calm     89% 0 in 28.00 W/m2
06:20 62.5 °F 59.5 °F 29.99 in Calm     90% 0 in 32.00 W/m2
06:25 62.6 °F 59.6 °F 29.99 in Calm     90% 0 in 34.00 W/m2
06:30 62.7 °F 60 °F 29.99 in Calm     91% 0 in 52.00 W/m2
06:35 62.8 °F 60.1 °F 29.99 in Calm     91% 0 in 107.00 W/m2
06:40 63.1 °F 60.7 °F 30.00 in Calm     92% 0 in 118.00 W/m2
06:45 63.3 °F 60.9 °F 30.00 in Calm     92% 0 in 137.00 W/m2
06:50 63.6 °F 61.2 °F 30.00 in Calm     92% 0 in 156.00 W/m2
06:55 64.1 °F 62 °F 30.00 in Calm     93% 0 in 177.00 W/m2
07:00 64.6 °F 62.5 °F 30.00 in Calm     93% 0 in 199.00 W/m2
07:05 65.2 °F 63.4 °F 30.00 in Calm   1 mph 94% 0 in 224.00 W/m2
07:10 65.9 °F 64.1 °F 30.00 in Calm   4 mph 94% 0 in 245.00 W/m2
07:15 66.5 °F 64.7 °F 30.00 in ENE 1 mph 5 mph 94% 0 in 268.00 W/m2
07:20 67.1 °F 65.3 °F 30.00 in SSE 2 mph 5 mph 94% 0 in 292.00 W/m2
07:25 67.7 °F 65.9 °F 30.00 in SSE 2 mph 4 mph 94% 0 in 315.00 W/m2
07:30 68.4 °F 66.6 °F 30.00 in SSE 1 mph 3 mph 94% 0 in 337.00 W/m2
07:35 69.1 °F 67.3 °F 29.99 in SSE 2 mph 6 mph 94% 0 in 355.00 W/m2
07:40 69.8 °F 68 °F 29.99 in SSE 2 mph 4 mph 94% 0 in 373.00 W/m2
07:45 70.4 °F 68.6 °F 29.99 in SSE 3 mph 8 mph 94% 0 in 393.00 W/m2
07:50 71.2 °F 69.1 °F 29.99 in SSE 3 mph 7 mph 93% 0 in 410.00 W/m2
07:55 71.9 °F 69.4 °F 29.98 in SSE 5 mph 8 mph 92% 0 in 426.00 W/m2
08:00 72.7 °F 69.3 °F 29.98 in SSE 4 mph 7 mph 89% 0 in 448.00 W/m2
08:05 73.5 °F 69.4 °F 29.98 in SSE 4 mph 6 mph 87% 0 in 470.00 W/m2
08:10 74.4 °F 69.2 °F 29.98 in SSE 4 mph 9 mph 84% 0 in 491.00 W/m2
08:15 75 °F 69.8 °F 29.98 in South 3 mph 7 mph 84% 0 in 510.00 W/m2
08:20 75.6 °F 69.3 °F 29.99 in SSE 6 mph 10 mph 81% 0 in 527.00 W/m2
08:25 76.1 °F 69.5 °F 29.99 in SSE 5 mph 10 mph 80% 0 in 545.00 W/m2
08:30 76.5 °F 69.1 °F 29.99 in SSE 5 mph 10 mph 78% 0 in 563.00 W/m2
08:35 76.8 °F 69.4 °F 30.00 in SSE 5 mph 10 mph 78% 0 in 581.00 W/m2
08:40 77 °F 69.2 °F 30.00 in SSE 4 mph 8 mph 77% 0 in 598.00 W/m2
08:45 77.4 °F 69.6 °F 30.00 in SSE 4 mph 8 mph 77% 0 in 618.00 W/m2
08:50 77.8 °F 69.2 °F 30.00 in SSE 4 mph 9 mph 75% 0 in 635.00 W/m2
08:55 78.4 °F 69.8 °F 30.00 in SSE 4 mph 7 mph 75% 0 in 649.00 W/m2
09:00 78.8 °F 69.8 °F 30.00 in SSE 2 mph 5 mph 74% 0 in 665.00 W/m2
09:05 79.4 °F 70.4 °F 30.01 in SSE 3 mph 6 mph 74% 0 in 682.00 W/m2
09:10 79.8 °F 69.9 °F 30.01 in South 3 mph 7 mph 72% 0 in 701.00 W/m2
09:15 80.2 °F 69.5 °F 30.01 in SSE 5 mph 9 mph 70% 0 in 716.00 W/m2
09:20 80.4 °F 69.3 °F 30.01 in SSE 5 mph 7 mph 69% 0 in 733.00 W/m2
09:25 80.7 °F 70 °F 30.01 in South 4 mph 7 mph 70% 0 in 749.00 W/m2
09:30 81 °F 69.8 °F 30.02 in SSE 4 mph 8 mph 69% 0 in 761.00 W/m2
09:35 81.3 °F 69.7 °F 30.02 in South 5 mph 11 mph 68% 0 in 775.00 W/m2
09:40 81.5 °F 69 °F 30.02 in SSE 7 mph 11 mph 66% 0 in 791.00 W/m2
09:45 81.5 °F 68.6 °F 30.02 in SSE 6 mph 10 mph 65% 0 in 805.00 W/m2
09:50 81.3 °F 68.4 °F 30.02 in SSE 3 mph 8 mph 65% 0 in 818.00 W/m2
09:55 81.5 °F 69 °F 30.02 in South 2 mph 6 mph 66% 0 in 834.00 W/m2
10:00 81.7 °F 68.3 °F 30.02 in SSE 1 mph 5 mph 64% 0 in 848.00 W/m2
10:05 82 °F 68.1 °F 30.03 in SE 4 mph 9 mph 63% 0 in 863.00 W/m2
10:10 82.3 °F 68.4 °F 30.02 in SSE 4 mph 8 mph 63% 0 in 875.00 W/m2
10:15 82.8 °F 67.9 °F 30.02 in SSE 5 mph 8 mph 61% 0 in 888.00 W/m2
10:20 83.2 °F 66.9 °F 30.02 in SSE 4 mph 9 mph 58% 0 in 899.00 W/m2
10:25 83.3 °F 66.4 °F 30.03 in SSE 7 mph 11 mph 57% 0 in 914.00 W/m2
10:30 83.6 °F 66.2 °F 30.03 in SSE 4 mph 9 mph 56% 0 in 926.00 W/m2
10:35 84.1 °F 66.2 °F 30.03 in SSE 3 mph 7 mph 55% 0 in 934.00 W/m2
10:40 84.4 °F 64.8 °F 30.03 in SSE 6 mph 9 mph 52% 0 in 944.00 W/m2
10:45 84.7 °F 65.1 °F 30.03 in SSE 4 mph 10 mph 52% 0 in 955.00 W/m2
10:50 85 °F 65.4 °F 30.03 in South 3 mph 9 mph 52% 0 in 964.00 W/m2
10:55 85.2 °F 63.9 °F 30.03 in SSE 8 mph 12 mph 49% 0 in 980.00 W/m2
11:00 85.4 °F 63.4 °F 30.03 in South 4 mph 9 mph 48% 0 in 984.00 W/m2
11:05 85.6 °F 66.5 °F 30.03 in South 4 mph 12 mph 53% 0 in 989.00 W/m2
11:10 85.9 °F 64.5 °F 30.03 in SSE 4 mph 8 mph 49% 0 in 997.00 W/m2
11:15 86.2 °F 65.3 °F 30.03 in SSW 4 mph 10 mph 50% 0 in 1004.00 W/m2
11:20 86.5 °F 66.8 °F 30.03 in SSE 4 mph 8 mph 52% 0 in 1013.00 W/m2
11:25 86.6 °F 64.5 °F 30.04 in SSE 7 mph 13 mph 48% 0 in 1022.00 W/m2
11:30 86.6 °F 64.5 °F 30.04 in SSE 4 mph 13 mph 48% 0 in 1028.00 W/m2
11:35 86.7 °F 64 °F 30.04 in SSE 7 mph 14 mph 47% 0 in 1033.00 W/m2
11:40 86.8 °F 64.7 °F 30.04 in SSE 6 mph 14 mph 48% 0 in 1038.00 W/m2
11:45 87 °F 67.8 °F 30.04 in SSE 5 mph 11 mph 53% 0 in 1041.00 W/m2
11:50 87.1 °F 65 °F 30.04 in South 7 mph 13 mph 48% 0 in 1045.00 W/m2
11:55 87.2 °F 66.3 °F 30.04 in SSE 5 mph 13 mph 50% 0 in 1047.00 W/m2
12:00 87.2 °F 64.5 °F 30.04 in South 3 mph 10 mph 47% 0 in 1051.00 W/m2
12:05 87.2 °F 65.1 °F 30.04 in SSE 5 mph 11 mph 48% 0 in 1057.00 W/m2
12:10 87.1 °F 65.6 °F 30.04 in SSE 4 mph 9 mph 49% 0 in 1059.00 W/m2
12:15 87.2 °F 65.7 °F 30.04 in SW 4 mph 9 mph 49% 0 in 1061.00 W/m2
12:20 87.4 °F 65.3 °F 30.04 in SSE 5 mph 10 mph 48% 0 in 1062.00 W/m2
12:25 87.4 °F 65.3 °F 30.04 in SSE 4 mph 11 mph 48% 0 in 1067.00 W/m2
12:30 87.4 °F 65.3 °F 30.04 in South 3 mph 7 mph 48% 0 in 1070.00 W/m2
12:35 87.4 °F 64 °F 30.04 in South 3 mph 8 mph 46% 0 in 1072.00 W/m2
12:40 87.2 °F 65.7 °F 30.04 in SSE 5 mph 14 mph 49% 0 in 1068.00 W/m2
12:45 87.4 °F 66.4 °F 30.04 in South 4 mph 9 mph 50% 0 in 1067.00 W/m2
12:50 87.6 °F 66 °F 30.04 in South 3 mph 8 mph 49% 0 in 1065.00 W/m2
12:55 88 °F 65.8 °F 30.04 in South 5 mph 12 mph 48% 0 in 1069.00 W/m2
13:00 87.9 °F 63.9 °F 30.04 in SSE 4 mph 10 mph 45% 0 in 1064.00 W/m2
13:05 88.1 °F 64 °F 30.04 in SSE 6 mph 12 mph 45% 0 in 1066.00 W/m2
13:10 88.1 °F 64 °F 30.04 in SSE 6 mph 14 mph 45% 0 in 1058.00 W/m2
13:15 88 °F 62.7 °F 30.04 in SSE 5 mph 12 mph 43% 0 in 1051.00 W/m2
13:20 88 °F 62.7 °F 30.04 in SSW 4 mph 10 mph 43% 0 in 1052.00 W/m2
13:25 88 °F 62.7 °F 30.03 in SSE 5 mph 8 mph 43% 0 in 1049.00 W/m2
13:30 88.1 °F 62.7 °F 30.04 in SSE 3 mph 8 mph 43% 0 in 1039.00 W/m2
13:35 88.1 °F 63.4 °F 30.03 in SSE 3 mph 9 mph 44% 0 in 1037.00 W/m2
13:40 88.3 °F 64.2 °F 30.03 in South 4 mph 13 mph 45% 0 in 1022.00 W/m2
13:45 88.5 °F 64.4 °F 30.03 in SSE 5 mph 9 mph 45% 0 in 1015.00 W/m2
13:50 88.7 °F 65.2 °F 30.03 in South 4 mph 8 mph 46% 0 in 1004.00 W/m2
13:55 88.8 °F 65.3 °F 30.03 in South 4 mph 7 mph 46% 0 in 1006.00 W/m2
14:00 88.9 °F 66 °F 30.03 in SSE 4 mph 7 mph 47% 0 in 989.00 W/m2
14:05 89 °F 64.9 °F 30.03 in SSE 5 mph 10 mph 45% 0 in 982.00 W/m2
14:10 89 °F 64.9 °F 30.03 in SSE 6 mph 12 mph 45% 0 in 980.00 W/m2
14:15 89.1 °F 61.6 °F 30.03 in SSE 4 mph 12 mph 40% 0 in 967.00 W/m2
14:20 88.9 °F 64.1 °F 30.03 in SSE 4 mph 10 mph 44% 0 in 962.00 W/m2
14:25 88.9 °F 60.7 °F 30.03 in South 4 mph 9 mph 39% 0 in 954.00 W/m2
14:30 88.9 °F 61.4 °F 30.03 in SSW 3 mph 7 mph 40% 0 in 944.00 W/m2
14:35 89 °F 61.5 °F 30.03 in SSE 4 mph 8 mph 40% 0 in 933.00 W/m2
14:40 89.1 °F 62.3 °F 30.03 in SSE 4 mph 10 mph 41% 0 in 924.00 W/m2
14:45 88.7 °F 61.9 °F 30.03 in SE 7 mph 10 mph 41% 0 in 908.00 W/m2
Albertville, Alabama, USA
Compliments of Weather Underground - 4 mb